{"data":{"norad_id":43570,"epoch":"2026-09-19T16:36:14.401440Z","epoch_age_seconds":85204,"freshness":"FRESH","line1":"1 43570U 18061B   26262.69183335  .00000100  00000+0  28589-4 0  9997","line2":"2 43570  86.4009  17.2249 0002092  94.5070 265.6365 14.34217836426948","mean_motion":14.34217836,"eccentricity":0.0002092,"inclination_deg":86.4009,"raan_deg":17.2249,"arg_perigee_deg":94.507,"mean_anomaly_deg":265.6365,"bstar":2.8589e-5,"rev_number":42694,"period_min":100.40315800396,"perigee_km":776.16987412859,"apogee_km":779.16386246709,"semimajor_km":7155.8038682978,"source":"CELESTRAK","updated_at":"2026-09-20T09:00:36.331871Z"}}